timestamp,surface_pressure_avg,surface_temp_avg,battery_voltage,lat,long
2022-06-06 00:09:01+00:00,255.5965,3.6,12.01,47.84626,-54.09684
2022-06-06 00:19:01+00:00,256.8448,3.59,12.01,47.84626,-54.09684
2022-06-06 00:29:01+00:00,258.7631,3.59,12.01,47.84626,-54.09684
2022-06-06 00:39:01+00:00,261.4448,3.59,12.01,47.84626,-54.09684
2022-06-06 00:49:01+00:00,266.7231,3.58,12.01,47.84626,-54.09684
2022-06-06 00:59:01+00:00,273.2547,3.59,12.01,47.84626,-54.09684
2022-06-06 01:09:01+00:00,276.6379,3.6,12.01,47.84626,-54.09684
2022-06-06 01:19:01+00:00,278.3381,3.6,12.01,47.84626,-54.09684
2022-06-06 01:29:01+00:00,281.9847,3.6,12.01,47.84626,-54.09684
2022-06-06 01:39:01+00:00,288.3464,3.6,12.01,47.84626,-54.09684
2022-06-06 01:49:01+00:00,292.1862,3.6,12.01,47.84626,-54.09684
2022-06-06 01:59:01+00:00,294.053,3.6,12.01,47.84626,-54.09684
2022-06-06 02:09:01+00:00,300.363,3.6,12.01,47.84626,-54.09684
2022-06-06 02:19:01+00:00,310.618,3.6,12.01,47.84626,-54.09684
2022-06-06 02:29:01+00:00,315.988,3.6,12.01,47.84626,-54.09684
2022-06-06 02:39:01+00:00,318.9263,3.6,12.01,47.84626,-54.09684
2022-06-06 02:49:01+00:00,324.6063,3.6,12.01,47.84626,-54.09684
2022-06-06 02:59:01+00:00,332.2580000000001,3.5,12.01,47.84626,-54.09684
2022-06-06 03:09:01+00:00,332.2863,3.5,12.01,47.84626,-54.09684
2022-06-06 03:19:00+00:00,332.1046,3.5,11.93,47.84626,-54.09684
2022-06-06 03:29:00+00:00,333.6195,3.4,11.93,47.84626,-54.09684
2022-06-06 03:39:00+00:00,333.3662,3.4,11.93,47.84626,-54.09684
2022-06-06 03:49:00+00:00,331.5947,3.49,11.93,47.84626,-54.09684
2022-06-06 03:59:00+00:00,332.8547,3.5,11.93,47.84626,-54.09684
2022-06-06 04:09:00+00:00,334.9615,3.4,11.93,47.84626,-54.09684
2022-06-06 04:19:00+00:00,334.7162,3.3,11.93,47.84626,-54.09684
2022-06-06 04:29:00+00:00,332.7279,3.2,11.93,47.84626,-54.09684
2022-06-06 04:39:00+00:00,332.3196,3.29,11.93,47.84626,-54.09684
2022-06-06 04:49:00+00:00,332.5731,3.31,11.93,47.84626,-54.09684
2022-06-06 04:59:00+00:00,332.5312,3.38,11.93,47.84626,-54.09684
2022-06-06 05:09:00+00:00,329.3563,3.4,11.93,47.84626,-54.09684
2022-06-06 05:19:01+00:00,324.5914,3.3,11.93,47.84626,-54.09684
2022-06-06 05:29:01+00:00,323.9098,3.3,11.93,47.84626,-54.09684
2022-06-06 05:39:01+00:00,322.8447,3.29,11.93,47.84626,-54.09684
2022-06-06 05:49:01+00:00,319.7196,3.3,11.93,47.84626,-54.09684
2022-06-06 05:59:01+00:00,311.7047,3.3,11.93,47.84626,-54.09684
2022-06-06 06:09:01+00:00,308.8698,3.3,11.93,47.84626,-54.09684
2022-06-06 06:19:00+00:00,306.4313,3.3,11.93,47.84626,-54.09684
2022-06-06 06:29:00+00:00,300.6996,3.3,11.93,47.84626,-54.09684
2022-06-06 06:39:00+00:00,292.8163,3.37,11.93,47.84626,-54.09684
2022-06-06 06:49:00+00:00,286.0797,3.4,11.93,47.84626,-54.09684
2022-06-06 06:59:00+00:00,280.9431,3.4,11.93,47.84626,-54.09684
2022-06-06 07:09:00+00:00,275.8114,3.39,11.93,47.84626,-54.09684
2022-06-06 07:19:00+00:00,269.5747,3.39,11.93,47.84626,-54.09684
2022-06-06 07:29:00+00:00,263.1497,3.4,11.93,47.84626,-54.09684
2022-06-06 07:39:00+00:00,257.9297,3.4,11.93,47.84626,-54.09684
2022-06-06 07:49:00+00:00,252.3865,3.4,11.93,47.84626,-54.09684
2022-06-06 07:59:00+00:00,246.2164,3.4,11.93,47.84626,-54.09684
2022-06-06 08:09:00+00:00,238.9764,3.4,11.93,47.84626,-54.09684
2022-06-06 08:19:01+00:00,235.2465,3.4,11.93,47.84626,-54.09684
2022-06-06 08:29:01+00:00,232.3564,3.4,11.93,47.84626,-54.09684
2022-06-06 08:39:01+00:00,228.0131,3.4,11.93,47.84626,-54.09684
2022-06-06 08:49:01+00:00,225.4648,3.39,11.93,47.84626,-54.09684
2022-06-06 08:59:01+00:00,227.6747,3.36,11.93,47.84626,-54.09684
2022-06-06 09:09:01+00:00,227.6014,3.35,11.93,47.84626,-54.09684
2022-06-06 09:19:01+00:00,223.593,3.38,11.93,47.84626,-54.09684
2022-06-06 09:29:01+00:00,222.3715,3.39,11.93,47.84626,-54.09684
2022-06-06 09:39:01+00:00,223.5898,3.39,11.93,47.84626,-54.09684
2022-06-06 09:49:01+00:00,222.8648,3.4,11.93,47.84626,-54.09684
2022-06-06 09:59:01+00:00,221.5414,3.4,11.93,47.84626,-54.09684
2022-06-06 10:09:01+00:00,224.0214,3.4,11.93,47.84626,-54.09684
2022-06-06 10:19:00+00:00,224.9998,3.4,11.93,47.84626,-54.09684
2022-06-06 10:29:00+00:00,224.2881,3.4,11.93,47.84626,-54.09684
2022-06-06 10:39:00+00:00,227.3631,3.4,11.93,47.84626,-54.09684
2022-06-06 10:49:00+00:00,231.3514,3.4,11.93,47.84626,-54.09684
2022-06-06 10:59:00+00:00,230.3481,3.4,11.93,47.84626,-54.09684
2022-06-06 11:09:00+00:00,229.8965,3.4,11.93,47.84626,-54.09684
2022-06-06 11:19:00+00:00,234.6931,3.4,11.93,47.84626,-54.09684
2022-06-06 11:29:00+00:00,237.4514,3.4,11.93,47.84626,-54.09684
2022-06-06 11:39:00+00:00,235.303,3.4,11.93,47.84626,-54.09684
2022-06-06 11:49:00+00:00,236.0914,3.4,11.93,47.84626,-54.09684
2022-06-06 11:59:00+00:00,240.9448,3.4,11.93,47.84626,-54.09684
2022-06-06 12:09:00+00:00,241.9447,3.4,11.93,47.84626,-54.09684
2022-06-06 12:19:01+00:00,241.4032,3.4,12.01,47.84626,-54.09684
2022-06-06 12:29:01+00:00,245.0714,3.4,12.01,47.84626,-54.09684
2022-06-06 12:39:01+00:00,249.2598,3.38,12.01,47.84626,-54.09684
2022-06-06 12:49:01+00:00,249.0515,3.3,12.01,47.84626,-54.09684
2022-06-06 12:59:01+00:00,250.0914,3.25,12.01,47.84626,-54.09684
2022-06-06 13:09:01+00:00,255.748,3.2,12.01,47.84626,-54.09684
2022-06-06 13:19:00+00:00,259.1364,3.14,12.09,47.84626,-54.09684
2022-06-06 13:29:00+00:00,261.2664,3.1,12.09,47.84626,-54.09684
2022-06-06 13:39:00+00:00,267.3947,3.1,12.09,47.84626,-54.09684
2022-06-06 13:49:00+00:00,274.6381,3.08,12.09,47.84626,-54.09684
2022-06-06 13:59:00+00:00,276.4932,3.07,12.09,47.84626,-54.09684
2022-06-06 14:09:00+00:00,281.2297,3.05,12.09,47.84626,-54.09684
2022-06-06 14:19:00+00:00,288.1364,3.09,12.17,47.84626,-54.09684
2022-06-06 14:29:00+00:00,290.3047,3.1,12.17,47.84626,-54.09684
2022-06-06 14:39:00+00:00,288.653,3.1,12.17,47.84626,-54.09684
2022-06-06 14:49:00+00:00,295.21299999999997,3.1,12.17,47.84626,-54.09684
2022-06-06 14:59:00+00:00,300.5912,3.1,12.17,47.84626,-54.09684
2022-06-06 15:09:00+00:00,298.7614,3.1,12.17,47.84626,-54.09684
2022-06-06 15:19:00+00:00,298.8747,3.1,12.41,47.84626,-54.09684
2022-06-06 15:29:00+00:00,307.4797,3.1,12.41,47.84626,-54.09684
2022-06-06 15:39:00+00:00,309.9214,3.1,12.41,47.84626,-54.09684
2022-06-06 15:49:00+00:00,308.3763,3.1,12.41,47.84626,-54.09684
2022-06-06 15:59:00+00:00,310.9113,3.1,12.41,47.84626,-54.09684
2022-06-06 16:09:00+00:00,312.7781,3.1,12.41,47.84626,-54.09684
2022-06-06 16:19:00+00:00,306.3713,3.1,12.41,47.84626,-54.09684
2022-06-06 16:29:00+00:00,303.868,3.1,12.41,47.84626,-54.09684
2022-06-06 16:39:00+00:00,306.1429,3.1,12.41,47.84626,-54.09684
2022-06-06 16:49:00+00:00,304.4214,3.14,12.41,47.84626,-54.09684
2022-06-06 16:59:00+00:00,300.7946,3.1,12.41,47.84626,-54.09684
2022-06-06 17:09:00+00:00,303.1429,3.1,12.41,47.84626,-54.09684
2022-06-06 17:19:00+00:00,304.4014,3.1,12.33,47.84626,-54.09684
2022-06-06 17:29:00+00:00,300.3464,3.1,12.33,47.84626,-54.09684
2022-06-06 17:39:00+00:00,300.0746,3.1,12.33,47.84626,-54.09684
2022-06-06 17:49:00+00:00,302.6796,3.1,12.33,47.84626,-54.09684
2022-06-06 17:59:00+00:00,297.6813,3.1,12.33,47.84626,-54.09684
2022-06-06 18:09:00+00:00,292.3431,3.1,12.33,47.84626,-54.09684
2022-06-06 18:19:00+00:00,294.7663,3.1,12.17,47.84626,-54.09684
2022-06-06 18:29:00+00:00,294.7313,3.1,12.17,47.84626,-54.09684
2022-06-06 18:39:00+00:00,285.203,3.1,12.17,47.84626,-54.09684
2022-06-06 18:49:00+00:00,277.7713,3.17,12.17,47.84626,-54.09684
2022-06-06 18:59:00+00:00,279.3599,3.2,12.17,47.84626,-54.09684
2022-06-06 19:09:00+00:00,277.4214,3.2,12.17,47.84626,-54.09684
2022-06-06 19:19:00+00:00,266.8881,3.2,12.17,47.84626,-54.09684
2022-06-06 19:29:00+00:00,260.4848,3.23,12.17,47.84626,-54.09684
2022-06-06 19:39:00+00:00,261.6646,3.29,12.17,47.84626,-54.09684
2022-06-06 19:49:00+00:00,257.3414,3.3,12.17,47.84626,-54.09684
2022-06-06 19:59:00+00:00,245.1731,3.32,12.17,47.84626,-54.09684
2022-06-06 20:09:00+00:00,240.7414,3.4,12.17,47.84626,-54.09684
2022-06-06 20:19:00+00:00,240.5348,3.45,12.17,47.84626,-54.09684
2022-06-06 20:29:00+00:00,237.1497,3.5,12.17,47.84626,-54.09684
2022-06-06 20:39:00+00:00,229.9614,3.57,12.17,47.84626,-54.09684
2022-06-06 20:49:00+00:00,228.4464,3.6,12.17,47.84626,-54.09684
2022-06-06 20:59:00+00:00,229.4948,3.7,12.17,47.84626,-54.09684
2022-06-06 21:09:00+00:00,226.9648,3.73,12.17,47.84626,-54.09684
2022-06-06 21:19:00+00:00,223.0897,3.78,12.09,47.84626,-54.09684
2022-06-06 21:29:00+00:00,223.6598,3.8,12.09,47.84626,-54.09684
2022-06-06 21:39:00+00:00,224.2215,3.8,12.09,47.84626,-54.09684
2022-06-06 21:49:00+00:00,221.3148,3.88,12.09,47.84626,-54.09684
2022-06-06 21:59:00+00:00,219.2931,3.9,12.09,47.84626,-54.09684
2022-06-06 22:09:00+00:00,222.6481,3.9,12.09,47.84626,-54.09684
2022-06-06 22:19:00+00:00,225.5397,3.9,12.09,47.84626,-54.09684
2022-06-06 22:29:00+00:00,224.9732,4.0,12.09,47.84626,-54.09684
2022-06-06 22:39:00+00:00,225.3048,4.03,12.09,47.84626,-54.09684
2022-06-06 22:49:00+00:00,223.5881,4.1,12.09,47.84626,-54.09684
2022-06-06 22:59:00+00:00,225.2181,4.17,12.09,47.84626,-54.09684
2022-06-06 23:09:00+00:00,229.0964,4.2,12.09,47.84626,-54.09684
2022-06-06 23:19:01+00:00,228.0914,4.2,12.09,47.84626,-54.09684
2022-06-06 23:29:01+00:00,227.0631,4.26,12.09,47.84626,-54.09684
2022-06-06 23:39:01+00:00,232.4865,4.3,12.09,47.84626,-54.09684
2022-06-06 23:49:01+00:00,236.4848,4.36,12.09,47.84626,-54.09684
2022-06-06 23:59:01+00:00,234.0098,4.39,12.09,47.84626,-54.09684
